Voltar ao catálogo

COSMOS 2251 DEB

AtivoLEO
NORAD 33920·DEBRIS·🇷🇺 Russia

Lançado Jun 16, 1993 de Plesetsk Cosmodrome

Loading…

Próximas Passagens (próximas 24 horas)

TLE

AtualizadoSource: Space-Track

Época: Sep 14, 2026, 02:14 UTC

1 33920U 93036DZ  26257.09342235  .00003878  00000-0  77678-3 0  9992
2 33920  74.0582 133.4656 0032732  75.3904 285.0888 14.61782272921346

Acompanhe COSMOS 2251 DEB em tempo real com AllMySat

Download on the App Store